Weather History for South Lake Tahoe, CA

Change the Weather History Date:

Thursday, February 14, 2013

  Actual Average Record
Temperature  
Mean Temperature 36 °F 31 °F  
Max Temperature 51 °F 44 °F 59 °F (2014)
Min Temperature 21 °F 17 °F -7 °F (1989)
Degree Days  
Heating Degree Days 29 34  
Month to date heating degree days 482 488  
Since 1 July heating degree days 4553 4770  
Cooling Degree Days 0 0  
Month to date cooling degree days 0 0  
Year to date cooling degree days 0 0  
Moisture  
Dew Point 20 °F    
Average Humidity 54    
Maximum Humidity 81    
Minimum Humidity 26    
Precipitation  
Precipitation 0.00 in - 1.48 in (1982)
Month to date precipitation 0.04  
Year to date precipitation 0.75  
Sea Level Pressure  
Sea Level Pressure 30.34 in    
Wind  
Wind Speed 3 mph (SSW)    
Max Wind Speed 12 mph    
Max Gust Speed 18 mph    
Visibility 10 miles    
Events      
T = Trace of Precipitation, MM = Missing Value Source: NWS Daily Summary

Daily Weather History Graph

Daily Weather History Graph

Search for Another Location

Airport:

Trip Planner

Search our weather history database for the weather conditions in past years. The results will help you decide how hot, cold, wet, or windy it might be!

Date:

Astronomy

Feb. 14, 2013 Rise Set
Actual Time 6:52 AM PST 5:36 PM PST
Civil Twilight 6:24 AM PST 6:04 PM PST
Nautical Twilight 5:53 AM PST 6:35 PM PST
Astronomical Twilight 5:22 AM PST 7:06 PM PST
Moon 8:59 AM PST (2/14) 10:41 PM PST (2/14)
Length of Visible Light 11h 39m
Length of Day
10h 44m
Waxing Crescent, 22% of the Moon is Illuminated
Feb 14
Waxing Crescent
Feb 17
First Quarter
Feb 25
Full
Mar 4
Last Quarter
Mar 11
New

Hourly Weather History & Observations

Time (PST) Temp. Windchill Dew Point Humidity Pressure Visibility Wind Dir Wind Speed Gust Speed Precip Events Conditions
12:53 AM 26.1 °F 21.9 °F 18.0 °F 71% 30.28 in 10.0 mi Variable 3.5 mph - N/A   Clear
1:53 AM 25.0 °F - 18.0 °F 75% 30.30 in 10.0 mi Calm Calm - N/A   Clear
2:53 AM 25.0 °F 20.7 °F 18.0 °F 75% 30.29 in 10.0 mi West 3.5 mph - N/A   Clear
3:53 AM 23.0 °F 18.4 °F 17.1 °F 78% 30.31 in 10.0 mi Variable 3.5 mph - N/A   Clear
4:53 AM 24.1 °F - 18.0 °F 77% 30.30 in 10.0 mi Calm Calm - N/A   Clear
5:53 AM 24.1 °F 19.7 °F 17.1 °F 75% 30.32 in 10.0 mi SSW 3.5 mph - N/A   Clear
6:53 AM 21.9 °F 17.2 °F 16.0 °F 78% 30.37 in 10.0 mi South 3.5 mph - N/A   Clear
7:53 AM 24.1 °F - 18.0 °F 77% 30.38 in 10.0 mi Calm Calm - N/A   Clear
8:53 AM 30.0 °F 26.5 °F 21.0 °F 69% 30.37 in 10.0 mi SSW 3.5 mph - N/A   Clear
9:53 AM 43.0 °F - 23.0 °F 45% 30.35 in 10.0 mi Calm Calm - N/A   Clear
10:53 AM 46.0 °F 44.8 °F 24.1 °F 42% 30.35 in 10.0 mi Variable 3.5 mph - N/A   Clear
11:53 AM 46.9 °F - 23.0 °F 39% 30.32 in 10.0 mi Variable 5.8 mph 17.3 mph N/A   Clear
12:53 PM 50.0 °F - 19.9 °F 31% 30.30 in 10.0 mi Variable 3.5 mph - N/A   Clear
1:53 PM 51.1 °F - 18.0 °F 27% 30.28 in 10.0 mi Variable 4.6 mph - N/A   Clear
2:53 PM 48.9 °F - 21.9 °F 35% 30.30 in 10.0 mi Calm Calm - N/A   Clear
3:53 PM 50.0 °F - 19.9 °F 31% 30.31 in 10.0 mi NNE 5.8 mph - N/A   Clear
4:53 PM 44.1 °F 40.8 °F 24.1 °F 45% 30.33 in 10.0 mi Variable 5.8 mph - N/A   Clear
5:53 PM 43.0 °F - 23.0 °F 45% 30.35 in 10.0 mi Calm Calm - N/A   Clear
6:53 PM 37.0 °F - 24.1 °F 59% 30.40 in 10.0 mi Calm Calm - N/A   Clear
7:53 PM 34.0 °F - 23.0 °F 64% 30.42 in 10.0 mi Calm Calm - N/A   Clear
8:53 PM 30.9 °F 27.5 °F 21.9 °F 69% 30.42 in 10.0 mi Variable 3.5 mph - N/A   Clear
9:53 PM 28.9 °F - 21.9 °F 75% 30.39 in 10.0 mi Calm Calm - N/A   Clear
10:53 PM 28.0 °F 24.2 °F 21.0 °F 75% 30.40 in 10.0 mi South 3.5 mph - N/A   Clear
11:53 PM 27.0 °F 23.0 °F 21.0 °F 78% 30.39 in 10.0 mi SSW 3.5 mph - N/A   Clear